Tracking 19297 objects as of 21-Nov-2018
HD Live streaming from Space Station
objects crossing your sky now

FLOCK 3P 70

Track FLOCK 3P 70 now!
10-day predictions
FLOCK 3P 70 is classified as:


NORAD ID: 41980
Int'l Code: 2017-008AJ
Perigee: 492.4 km
Apogee: 504.4 km
Inclination: 97.4 °
Period: 94.4 minutes
Semi major axis: 6869 km
RCS: Unknown
Launch date: February 15, 2017
Source: United States (US)
Launch site: SRIHARIKOTA (SRI)
aabbcc
Your satellite tracking list
Your tracking list is empty




NASA's NSSDC Master Catalog

Two Line Element Set (TLE):
1 41980U 17008AJ  18324.67318363 +.00001785 +00000-0 +74755-4 0  9996
2 41980 097.4365 028.7593 0008760 154.4637 205.7035 15.24834896097797
Source of the keplerian elements: AFSPC